Hourly Data Report for May 31, 2019

MIRAMICHI RCS
NEW BRUNSWICK
Current Station Operator: ECCC - MSC

47°00'34.000" N
65°27'54.000" W
33.00 m
8100989
71744
ACQ

Download Data

Hourly Data (May 2019)
Hourly Data Report for May 31, 2019
TIME
LST
Temp Definition
°C
Dew Point Definition
°C
Rel Hum Definition
%
Precip. Amount Definition
mm

Wind Dir Definition
10's deg

Wind Spd Definition
km/h
Visibility Definition
km
Stn Press Definition
kPa
Hmdx Definition


Wind Chill Definition


Weather Definition


00:00 11.3 7.3 76 0.0 20 31   99.96     LegendNANA
01:00 10.8 7.3 79 0.0 20 24   99.88     LegendNANA
02:00 10.4 7.6 83 0.0 20 27   99.83     LegendNANA
03:00 10.1 7.7 85 0.0 20 26   99.76     LegendNANA
04:00 9.7 8.2 90 0.0 19 20   99.70     LegendNANA
05:00 9.5 8.5 94 0.0 21 19   99.74     LegendNANA
06:00 9.4 8.4 94 0.5 20 21   99.74     LegendNANA
07:00 9.6 8.3 92 0.6 21 22   99.80     LegendNANA
08:00 10.0 8.8 92 0.3 22 22   99.84     LegendNANA
09:00 11.5 9.5 87 0.0 23 23   99.85     LegendNANA
10:00 12.9 7.0 68 0.0 28 16   99.88     LegendNANA
11:00 14.9 2.9 44 0.0 25 19   99.91     LegendNANA
12:00 15.6 -2.8 28 0.0 26 27   99.95     LegendNANA
13:00 16.4 -1.7 29 0.0 29 20   99.95     LegendNANA
14:00 16.6 -1.4 29 0.0 28 21   99.99     LegendNANA
15:00 17.1 -1.0 29 0.0 24 21   100.02     LegendNANA
16:00 16.7 -1.9 28 0.0 25 23   100.02     LegendNANA
17:00 16.8 -1.6 29 0.0 25 16   100.05     LegendNANA
18:00 17.1 -2.4 26 0.0 27 19   100.10     LegendNANA
19:00 16.3 -2.4 28 0.0 28 11   100.14     LegendNANA
20:00 13.8 -0.5 37 0.0 28 8   100.22     LegendNANA
21:00 10.3 1.3 54 0.0 26 4   100.33     LegendNANA
22:00 9.8 -0.2 50 0.0 31 4   100.41     LegendNANA
23:00 8.7 0.8 58 0.0 36 4   100.43     LegendNANA

Notes on Data Quality.

Legend

  • E = Estimated
  • M = Missing
  • NA = Not Available*
  • [empty] = Indicates an unobserved value
Date modified: